C/2024 M1 ( ATLAS )

Japanese version
Home page
Updated on January 10, 2025

---------------------------------------------------------------------

* Profile

Discovery Date June 29, 2024
Magnitude 17.8 mag
Discoverer Asteroid Terrestrial-Impact Last Alert System (ATLAS) search program

* Pictures

* Orbital Elements

Epoch 2024 Oct. 17.0 TT = JDT 2460600.5
T 2024 Nov. 20.03300 TT                                 Rudenko
q   1.7033577            (2000.0)            P               Q
n   0.00603146     Peri.  345.60322     +0.29853215     -0.20461637
a  29.8896577      Node    76.21481     +0.94275743     -0.08887446
e   0.9430118      Incl.   73.71019     +0.14861689     +0.97479920
P 163
From 474 observations 2022 May 10-2024 Nov. 13, mean residual 0".4.

* Finding Charts

* Magnitudes Graph

        H = 13.0  G = 0.15

---------------------------------------------------------------------

The orbital elements are published on M.P.E.C. 2024-V192.
The charts are made with StellaNavigator Ver.11 (AstroArts).
The magnitudes graphs are made with Comet for Windows.

---------------------------------------------------------------------

Copyright(C) Seiichi Yoshida (comet@aerith.net). All rights reserved.